Location: Hamburg
(53.5554°N, 9.9941°E)
Time: 02:23:08
(UTC+02:00)

ISS - Pass Details

Date: 13 May 2021
Orbit: 417 x 422 km, 51.6° (Epoch: 15 June)

Event Time Altitude Azimuth Distance (km) Brightness Sun altitude
Exits shadow 03:36:58 - 274° (W) 2,030 -0.6 -11.9°
Reaches altitude 10° 03:38:16 10° 270° (W) 1,509 -1.3 -11.8°
Maximum altitude 03:41:32 46° 196° (SSW) 576 -3.5 -11.6°
Drops below altitude 10° 03:44:48 10° 122° (ESE) 1,508 -0.9 -11.3°
Sets 03:46:57 0° 116° (ESE) 2,371 0.2 -11.1°
